{"data":{"norad_id":63647,"intl_designator":"2025-083P","name":"STARLINK-33729","alt_names":[],"object_type":"PAYLOAD","status":"ACTIVE","operator":null,"country":"US","launch_date":"2025-04-25","launch_site_code":"AFETR","launch_vehicle":null,"mission":null,"orbit_class":"UNKNOWN","rcs_meters":null,"size_class":null,"mass_kg":null,"dimensions":null,"purposes":["comms"],"wikipedia_slug":null,"has_3d_model":false,"image_url":null,"decayed_at":null,"tle_current":{"epoch":"2026-09-20T22:30:00.696384Z","epoch_age_seconds":114795,"freshness":"FRESH","line1":"1 63647U 25083P   26263.93750806  .00010923  00000+0  40566-3 0  9999","line2":"2 63647  43.0015 342.8825 0001687 267.0300  93.0359 15.27596176 79928","mean_motion":15.27596176,"eccentricity":0.0001687,"inclination_deg":43.0015,"raan_deg":342.8825,"arg_perigee_deg":267.03,"mean_anomaly_deg":93.0359,"bstar":0.00040566,"rev_number":7992,"period_min":94.265750505518,"perigee_km":481.8431857806,"apogee_km":484.15813362698,"semimajor_km":6861.1376597038,"source":"CELESTRAK","updated_at":"2026-09-21T09:00:35.053288Z"}}}